Flag for Germany Weather past 2 weeks in Kassel, Hesse, Germany

Now
54 °F

Broken clouds.


Feels Like: 50 °F
Forecast: 42 / 58 °F
Wind: 12 mph from Northwest

Location: Kassel / Calden

Current Time: May 26, 2015 at 2:36:11 PM

Latest Report: May 26, 2015 at 1:50 PM


Visibility: N/A

Pressure: 30.07 "Hg

Humidity: 54%

Dew point: 37 °F

Location of KasselLocation

Historic Weather in Kassel — Graph

°F

Kassel temperature yesterday

Maximum temperature yesterday: 57 °F (at 11:20 AM)
Minimum temperature yesterday: 45 °F (at 5:50 AM)
Average temperature yesterday: 54 °F

Past Weeks' High & Low Weather Summary

 TemperatureHumidityPressure
High79 °F (May 12, 2:50 PM)100% (May 25, 7:20 AM)30.33 "Hg (May 25, 7:20 AM)
Low37 °F (May 16, 5:50 AM)34% (May 22, 3:20 PM)29.65 "Hg (May 18, 7:20 PM)
Average57 °F62%30.04 "Hg
* Reported May 11 1:20 PM — May 26 1:20 PM, Kassel, Weather by CustomWeather, © 2015

Note: Actual official high and low records may vary slightly from our data, if they occured in-between our weather recording intervals... More about our weather records

Advertising

Kassel weather history for previous 24 hours

 ConditionsComfort  
Time TempWeatherWind HumidityBarometerVisibility
1:20 PM
Tue, May 26
54 °FBroken clouds.12 mph54%30.09 "HgN/A
12:50 PM54 °FBroken clouds.12 mph54%30.09 "HgN/A
12:20 PM50 °FBroken clouds.10 mph67%30.09 "HgN/A
11:50 AM50 °FBroken clouds.13 mph67%30.09 "HgN/A
11:20 AM50 °FBroken clouds.12 mph62%30.07 "HgN/A
10:50 AM50 °FBroken clouds.12 mph67%30.07 "HgN/A
10:20 AM50 °FBroken clouds.12 mph71%30.07 "HgN/A
9:50 AM50 °FBroken clouds.12 mph71%30.07 "HgN/A
9:20 AM48 °FBroken clouds.12 mph82%30.07 "HgN/A
8:50 AM48 °FBroken clouds.10 mph76%30.07 "HgN/A
8:20 AM48 °FBroken clouds.9 mph76%30.04 "HgN/A
7:50 AM48 °FBroken clouds.10 mph82%30.04 "HgN/A
7:20 AM48 °FBroken clouds.10 mph82%30.04 "HgN/A
6:50 AM46 °FBroken clouds.8 mph93%30.01 "HgN/A
6:20 AM46 °FBroken clouds.5 mph87%30.01 "HgN/A
9:50 PM
Mon, May 25
54 °FBroken clouds.5 mph77%29.95 "HgN/A
9:20 PM54 °FBroken clouds.5 mph77%29.95 "HgN/A
8:50 PM54 °FScattered clouds.5 mph77%29.95 "HgN/A
8:20 PM54 °FScattered clouds.5 mph77%29.95 "HgN/A
7:50 PM55 °FBroken clouds.7 mph72%29.95 "HgN/A
7:20 PM55 °FBroken clouds.8 mph72%29.95 "HgN/A
6:50 PM55 °FScattered clouds.9 mph72%29.95 "HgN/A
6:20 PM55 °FMostly cloudy.7 mph72%29.95 "HgN/A
5:50 PM54 °FBroken clouds.7 mph82%29.95 "HgN/A
5:20 PM54 °FPartly sunny.6 mph77%29.95 "HgN/A
4:50 PM54 °FMostly cloudy.12 mph88%29.95 "HgN/A
4:20 PM54 °FLight rain. Mostly cloudy.13 mph88%29.95 "HgN/A
3:50 PM54 °FMostly cloudy.12 mph88%29.95 "HgN/A
3:20 PM55 °FMore clouds than sun.14 mph82%29.95 "HgN/A
2:50 PM55 °FBroken clouds.14 mph82%29.95 "HgN/A
2:20 PM57 °FBroken clouds.10 mph77%29.95 "HgN/A
Weather by CustomWeather, © 2015

See weather overviewHow to use our weather pages